Wind_Speed
3 4 6 6 6 4 3 5 3 2 4 3 7 9 4 9 6 11 12 14 18 16 18 25 28 31 30 27 32 33 33 30 27 23 19 18 18 14 14 14 12 12 8 8
5 4 8 7 5 4 3 1 1 3 2 4 3 3 4 6 6 10 15 13 15 14 13 19 24 27 30 33 37 35 35 31 29 26 23 21 19 15 12 13 10 9 9 8
7 6 7 6 5 5 2 4 2 3 4 4 2 4 2 1 2 4 7 12 8 14 16 16 23 27 29 29 33 39 38 36 33 28 26 20 17 13 15 14 13 11 8 7
4 2 7 4 4 5 1 7 5 3 3 2 2 3 2 3 4 4 5 8 8 8 11 16 23 26 29 34 38 41 40 38 37 31 30 26 23 18 20 17 15 11 9 8
6 7 5 3 5 7 7 4 6 4 3 3 3 4 4 2 7 13 13 10 9 7 8 15 23 29 33 34 35 37 41 39 39 36 32 28 23 22 20 18 16 15 12 11
2 0 3 6 4 8 4 5 7 5 3 2 5 5 4 5 7 11 11 14 12 10 9 9 23 29 30 32 33 35 37 43 43 40 37 33 29 23 20 18 16 16 14 12
5 4 5 3 3 3 5 6 2 2 2 5 3 4 5 6 9 11 12 14 17 15 10 12 14 25 28 30 32 33 36 36 43 41 39 37 34 29 26 22 18 17 18 16
4 4 7 8 3 4 3 7 5 5 5 3 4 4 1 5 9 8 6 6 11 12 12 13 16 25 30 32 32 33 35 39 40 43 40 38 37 33 29 24 22 19 19 19
4 2 5 5 7 2 3 4 3 7 3 4 2 3 3 9 16 15 13 4 4 10 15 16 21 25 28 32 35 37 37 38 40 46 43 40 36 36 34 28 23 21 20 22
1 4 3 6 5 7 7 1 3 3 4 3 3 3 4 13 16 15 15 9 8 6 8 12 16 26 31 35 37 37 39 44 46 45 45 43 39 36 36 33 28 24 22 20
2 4 4 4 7 4 5 5 6 5 3 5 4 2 5 6 7 11 14 15 11 9 10 11 16 27 32 33 35 38 36 37 37 41 41 42 42 38 34 35 33 30 25 21
4 4 5 3 5 5 5 3 3 4 3 1 3 3 4 8 10 9 14 16 15 12 11 10 13 20 24 29 32 36 37 35 39 40 39 43 45 42 39 35 35 34 31 26
1 3 4 4 6 5 6 5 4 4 3 1 4 4 4 8 13 14 14 17 13 14 15 13 5 5 20 24 28 30 33 35 34 32 35 33 36 40 43 41 37 36 35 31
6 3 3 6 4 3 4 2 3 5 3 3 4 2 7 13 12 14 17 17 15 15 13 11 10 10 12 7 24 27 27 32 32 31 31 31 35 40 42 43 42 39 37 36
4 4 2 4 4 3 3 3 2 2 4 4 4 3 4 4 7 9 11 16 18 18 16 14 11 9 13 8 4 20 25 30 35 34 35 38 38 37 38 37 41 42 40 38
5 2 2 3 4 3 3 5 6 5 3 6 6 3 6 3 5 13 12 14 16 17 18 15 14 16 17 16 4 4 18 27 31 34 36 36 40 41 39 39 39 41 41 41
3 4 3 3 2 3 3 2 1 1 3 2 4 2 5 7 10 9 9 12 15 16 17 16 15 19 18 20 18 3 7 14 23 31 31 35 37 35 36 35 37 38 40 40
3 3 2 2 2 3 4 4 4 2 3 3 1 4 4 5 10 8 3 9 15 17 18 14 17 21 23 20 24 19 11 4 2 14 23 29 31 32 31 31 34 39 37 38
3 4 3 3 1 3 3 4 4 4 1 9 6 10 9 12 10 2 7 13 14 14 20 22 19 17 22 19 18 21 21 17 15 14 4 8 20 27 29 35 34 36 32 34
5 6 4 1 2 2 2 3 4 2 4 6 8 10 12 10 3 3 14 17 20 23 24 26 28 20 15 18 13 18 16 16 18 15 12 8 5 6 29 32 32 33 36 35
3 3 4 3 1 4 3 5 4 2 3 3 2 4 8 6 4 14 18 22 19 21 25 28 27 23 19 14 11 8 11 15 12 13 12 12 9 11 13 24 34 32 32 32
3 5 3 2 3 6 2 3 3 2 2 5 7 8 12 14 14 13 17 17 23 23 27 26 26 27 24 20 13 7 9 11 13 14 13 14 13 13 12 17 18 31 31 30
2 5 4 6 5 1 3 4 3 2 4 7 10 12 13 15 15 13 15 18 23 25 26 26 23 25 26 23 13 14 5 6 8 10 12 15 15 13 13 13 18 22 28 29
2 3 2 4 3 7 8 5 5 4 4 8 9 11 12 16 16 17 15 17 24 24 27 27 25 26 26 21 17 12 13 10 10 10 12 12 15 16 17 17 14 24 28 27
4 7 6 5 6 4 6 7 8 6 6 8 10 11 12 15 16 16 15 17 26 31 27 25 25 25 28 24 21 14 13 16 15 13 14 15 14 17 20 20 18 21 29 34
5 7 5 5 7 5 4 5 5 6 7 9 9 11 17 17 14 20 16 22 29 31 31 22 25 27 26 24 22 19 15 16 14 15 17 20 22 26 23 21 27 23 20 28
Wind_Direction
193 109 194 188 190 168 134 115 118 255 235 200 232 247 168 162 182 184 192 190 189 192 190 192 193 198 197 193 197 198 194 196 198 202 209 215 215 215 226 222 223 226 220 206
63 205 206 194 198 168 142 95 183 280 174 185 320 314 123 151 191 197 192 194 192 191 187 189 193 192 194 196 200 201 202 201 203 203 199 195 196 203 215 208 217 210 222 214
147 202 167 179 167 172 153 161 202 185 341 35 109 354 107 56 44 117 202 203 195 195 187 193 187 194 193 202 198 203 206 204 205 204 192 191 198 214 198 208 212 210 211 221
185 156 160 159 181 131 212 203 188 184 79 187 74 276 321 195 214 243 214 187 190 193 182 189 188 192 194 202 206 207 208 208 207 204 195 194 190 192 204 211 213 211 219 217
225 151 150 160 197 166 213 137 173 173 136 65 330 80 265 174 229 230 216 207 199 198 188 190 190 194 197 198 204 207 209 209 205 206 205 200 198 202 206 211 217 216 221 220
158 322 107 200 202 187 108 84 38 44 90 66 230 127 281 191 233 245 217 210 205 204 204 185 193 193 197 199 200 201 205 209 210 209 212 210 205 198 196 202 206 212 222 228
22 359 324 48 96 56 96 83 23 32 49 207 345 91 231 296 281 234 221 212 205 211 204 199 188 195 195 196 196 196 202 208 209 212 214 216 212 205 205 209 211 219 225 228
117 26 356 338 52 163 123 151 152 163 168 208 16 194 176 310 328 356 197 194 187 202 219 215 206 195 194 195 196 199 200 206 210 213 217 218 220 209 207 211 215 221 226 229
123 65 314 54 26 36 157 67 171 105 13 85 241 297 329 360 14 11 23 38 234 202 211 204 212 203 197 197 197 199 201 206 211 213 217 218 219 217 211 211 215 220 228 232
103 89 9 307 18 22 92 108 75 15 119 142 310 63 309 348 348 347 357 352 328 302 237 219 205 200 199 198 200 201 203 205 211 214 215 220 220 220 220 215 215 220 224 230
54 80 313 33 12 287 3 19 37 108 98 148 155 279 17 323 325 338 339 341 331 305 277 240 217 209 201 196 195 199 202 204 206 211 213 216 222 223 222 220 218 221 223 229
349 110 71 60 298 16 70 73 86 115 218 33 113 223 57 353 348 355 348 345 335 325 324 254 224 210 202 200 196 197 199 203 207 210 210 214 221 223 224 224 224 222 224 226
64 23 92 26 331 8 47 345 110 96 84 166 130 225 16 11 9 4 356 350 4 0 10 17 20 225 212 198 199 201 201 202 206 206 206 212 214 221 225 225 228 227 225 229
78 77 136 171 144 131 78 359 18 97 93 175 209 259 346 356 14 3 356 350 347 3 14 16 23 20 25 187 194 198 200 203 202 203 207 209 215 221 228 229 227 229 228 228
78 104 69 73 92 94 125 176 196 183 190 173 165 147 318 4 355 18 358 358 2 360 6 20 18 14 14 22 89 202 198 198 202 203 206 216 222 224 226 230 234 232 231 230
6 118 101 85 53 75 198 234 231 244 267 279 289 99 319 348 334 26 12 1 4 2 1 7 10 16 12 12 310 166 194 195 201 208 214 218 223 225 226 229 232 236 235 235
58 121 91 157 360 34 54 317 248 243 57 317 240 31 10 343 354 353 9 7 359 354 3 3 3 357 9 8 23 16 198 205 207 213 216 219 222 220 225 228 230 232 237 237
115 87 76 146 23 159 207 8 350 196 96 10 2 20 40 334 302 295 21 22 358 350 348 354 358 348 348 16 37 35 52 62 236 243 222 220 220 222 224 226 231 233 232 235
84 119 76 113 113 274 94 11 9 26 36 29 353 355 351 346 310 133 44 8 345 332 333 336 337 338 341 346 46 52 44 52 57 44 56 226 227 224 223 229 231 233 228 230
62 75 106 101 99 197 126 258 280 190 254 19 3 335 335 349 360 264 346 342 328 326 324 325 326 323 335 350 11 58 54 43 33 19 7 350 292 276 228 231 229 234 237 233
26 12 118 142 125 298 159 278 330 154 292 285 296 302 313 303 282 302 312 309 311 310 311 315 317 310 311 328 351 27 47 44 40 25 5 360 340 306 264 244 235 231 233 233
170 136 177 85 179 257 155 25 188 245 268 284 293 308 300 293 291 292 298 300 305 310 313 310 309 303 298 306 320 349 23 33 23 20 13 360 359 345 298 264 247 227 226 227
224 174 181 179 211 213 172 186 234 233 279 294 300 298 292 291 290 291 294 296 299 301 298 297 295 295 290 292 298 301 332 348 3 3 2 353 351 335 332 304 262 243 227 224
254 166 177 51 208 204 197 187 192 187 239 269 275 286 294 284 287 290 292 293 294 293 291 293 292 289 283 277 293 295 306 319 327 330 330 344 325 331 334 335 297 256 234 224
198 155 191 250 257 231 225 200 188 225 252 265 269 280 308 295 284 286 284 285 292 290 287 281 278 279 278 284 295 312 318 326 331 333 331 326 320 320 326 323 316 302 241 226
188 182 174 218 208 150 195 182 182 242 266 282 290 300 310 303 294 291 281 287 286 284 285 270 263 272 269 280 292 310 322 318 325 334 330 324 325 319 316 325 320 320 290 239
Height
774 790 797 789 785 782 783 792 796 787 776 781 787 782 783 783 786 788 788 790 793 796 799 805 809 813 817 822 825 828 830 834 837 840 843 847 848 851 854 856 859 861 863 865
785 794 780 775 780 782 784 790 796 783 776 782 782 785 786 783 783 783 784 788 790 794 798 803 808 812 815 818 821 826 829 833 836 838 840 844 847 849 852 856 858 860 862 863
786 775 769 774 780 785 787 796 793 792 781 781 786 795 793 786 781 781 783 784 787 790 794 798 804 810 812 817 819 823 826 829 834 837 839 842 846 849 852 855 857 859 861 863
773 762 768 775 779 781 795 781 781 786 796 811 787 824 800 792 789 785 785 784 786 787 790 794 800 805 809 812 816 820 824 828 832 837 839 839 842 845 849 852 855 858 860 862
774 770 772 777 775 773 786 773 782 783 798 801 799 817 804 794 796 785 779 782 781 783 785 789 794 799 803 807 813 817 821 825 829 835 838 839 841 844 848 851 854 857 860 861
764 755 762 766 762 765 764 784 798 807 814 831 805 810 809 803 788 772 774 774 776 778 780 785 789 795 799 804 808 812 818 820 825 829 835 837 839 842 845 849 852 855 858 860
775 775 769 764 769 768 778 799 832 830 834 833 815 812 805 788 778 771 768 767 769 772 776 781 783 788 793 798 802 807 812 818 820 825 829 833 836 838 841 845 848 852 855 858
799 803 782 770 773 778 782 792 823 828 844 824 813 812 805 783 775 764 763 764 765 770 773 777 778 782 786 792 797 803 806 811 816 820 824 829 834 835 837 841 845 848 851 855
801 800 781 775 777 777 784 804 798 825 831 828 823 796 787 784 778 775 773 769 768 767 765 768 773 776 781 786 789 795 800 806 811 813 819 823 828 832 834 837 841 845 849 852
794 807 791 787 779 781 788 793 809 820 831 825 826 823 824 805 797 787 782 781 775 769 765 763 762 764 770 776 783 790 794 797 803 809 813 819 823 827 831 834 837 840 844 848
796 802 800 798 815 815 806 815 819 824 832 837 841 837 812 815 808 799 789 781 776 771 765 758 755 758 760 767 774 780 788 793 798 804 809 813 818 823 827 830 832 836 840 844
803 818 831 824 815 810 812 819 830 827 828 842 836 835 808 808 805 801 795 789 776 769 762 751 752 756 759 762 768 771 779 787 791 797 803 806 811 816 822 825 828 831 835 839
800 827 838 830 824 818 825 821 830 840 843 842 834 834 806 808 805 803 803 794 783 774 764 758 753 755 756 758 764 770 774 778 787 794 797 804 807 810 814 818 823 826 830 834
805 833 823 832 829 832 833 825 824 834 840 841 840 825 818 814 815 810 806 801 790 782 776 770 765 763 761 759 760 765 771 776 782 788 795 798 802 804 809 813 815 820 823 828
816 830 827 830 829 827 829 827 824 823 824 827 823 825 821 823 819 817 814 806 797 790 782 777 774 771 768 766 764 765 768 772 777 781 786 790 796 800 804 808 811 814 818 821
829 836 829 834 832 831 831 830 829 826 821 824 820 825 828 822 820 816 818 814 806 800 793 786 783 777 774 771 769 768 768 771 774 778 781 785 788 794 796 800 804 808 811 815
834 843 849 841 842 837 841 831 825 823 826 827 827 832 832 826 823 822 820 819 814 808 801 795 792 788 780 774 770 770 769 772 773 775 778 780 782 788 791 795 799 802 804 807
837 846 855 852 848 849 835 834 831 827 829 831 830 832 833 832 825 823 823 821 818 814 808 802 798 795 789 781 774 771 771 771 771 774 775 777 780 784 787 790 792 794 797 799
840 847 859 857 857 844 838 846 844 845 836 841 839 838 837 835 822 816 821 823 823 819 815 810 804 799 795 790 781 776 774 772 771 771 773 776 778 779 781 782 785 787 791 793
841 846 852 857 844 842 847 845 841 843 842 846 847 845 842 838 831 820 819 822 820 819 816 811 806 802 798 793 786 776 776 774 770 771 772 774 774 774 775 776 779 781 782 785
861 856 859 857 862 848 842 841 839 843 843 847 847 846 845 845 840 830 826 820 823 819 816 810 806 801 796 794 788 782 776 772 771 770 772 772 770 769 770 771 771 773 775 778
853 865 861 850 841 848 839 840 840 845 846 844 841 839 837 835 833 833 825 820 816 812 808 807 805 799 794 790 787 782 774 769 768 768 769 769 765 765 765 766 763 765 768 771
857 852 862 859 853 842 841 843 843 845 845 843 839 835 834 831 827 826 823 816 812 808 804 804 802 797 792 790 787 783 774 771 767 767 766 764 761 764 763 758 756 759 760 762
845 845 844 852 839 842 842 842 842 840 839 838 837 834 832 828 823 818 816 811 804 803 799 795 793 789 786 786 784 780 775 768 766 763 763 760 762 757 754 751 752 752 751 752
843 838 843 848 837 836 834 834 834 834 832 831 830 829 828 824 819 815 810 807 802 794 793 789 784 782 778 777 777 774 770 767 763 758 756 757 757 755 746 747 747 744 739 739
832 831 840 834 823 823 824 824 826 828 826 825 825 823 822 820 814 810 805 802 797 787 781 779 778 775 771 772 770 768 766 768 762 752 752 753 749 748 745 734 734 732 731 731